Location: Caltech
(34.1382°N, 118.1253°W)
Time: 22:40:49
(UTC-08:00)

FENGYUN 3A - Visible Passes

Search period start: 18 January 2017 00:00
Search period end: 28 January 2017 00:00
Orbit: 819 x 833 km, 98.4° (Epoch: 18 January)

Date Brightness Start Highest point End Pass type
(mag) Time Alt. Az. Time Alt. Az. Time Alt. Az.
18 Jan 4.8 18:01:38 10° ESE 18:05:21 19° ENE 18:09:04 10° NNE visible
18 Jan 4.6 19:40:06 10° S 19:45:11 45° W 19:50:20 10° NNW visible
19 Jan 5.2 17:44:26 10° E 17:46:43 13° ENE 17:48:59 10° NE visible
19 Jan 3.8 19:20:57 10° S 19:26:16 71° WSW 19:31:38 10° NNW visible
20 Jan 3.5 19:02:04 10° SSE 19:07:24 77° ENE 19:12:46 10° N visible
20 Jan 6.6 20:47:38 10° W 20:48:07 10° W 20:48:36 10° W visible
21 Jan 3.7 18:43:26 10° SSE 18:48:34 50° ENE 18:53:45 10° N visible
21 Jan 6.2 20:25:42 10° SW 20:29:02 17° W 20:32:24 10° NW visible
22 Jan 4.2 18:25:05 10° SE 18:29:48 33° ENE 18:34:33 10° N visible
22 Jan 5.6 20:05:37 10° SSW 20:10:00 26° W 20:14:25 10° NW visible
23 Jan 4.7 18:07:02 10° ESE 18:11:05 22° ENE 18:15:08 10° NNE visible
23 Jan 4.9 19:46:03 10° SSW 19:51:01 39° W 19:56:02 10° NNW visible
24 Jan 5.1 17:49:31 10° E 17:52:25 15° ENE 17:55:19 10° NNE visible
24 Jan 4.1 19:26:48 10° S 19:32:04 61° W 19:37:23 10° NNW visible
25 Jan 3.5 19:07:50 10° SSE 19:13:11 88° ENE 19:18:35 10° NNW visible
26 Jan 3.6 18:49:07 10° SSE 18:54:20 58° ENE 18:59:37 10° N visible
26 Jan 6.4 20:32:06 10° SW 20:34:54 14° W 20:37:42 10° WNW visible
27 Jan 4.1 18:30:39 10° SE 18:35:33 38° ENE 18:40:29 10° N visible
27 Jan 5.8 20:11:44 10° SW 20:15:50 22° W 20:19:58 10° NW visible
